Regional Weather Roundup
Issued by NWS

Home | Current Version | Previous Version | Graphics & Text | Print | Product List | Glossary On
Versions: 1 2 3 4 5 6 7 8 9 10 11 12 13 14 15 16 17 18 19 20 21 22 23 24 25 26 27 28 29 30 31 32 33 34 35 36 37 38 39 40 41 42 43 44 45 46 47 48 49
000
ASUS45 KCYS 300910
RWRWY

WYOMING REGIONAL WEATHER ROUNDUP
NATIONAL WEATHER SERVICE CHEYENNE WY
200 AM MST FRI JAN 30 2015

NOTE:  "FAIR" INDICATES FEW OR NO CLOUDS BELOW 12,000 FEET
WITH NO SIGNIFICANT WEATHER AND/OR OBSTRUCTIONS TO VISIBILITY.

WYZ001-301000-
YELLOWSTONE NATIONAL PARK

CITY           SKY/WX    TMP DP  RH WIND       PRES   REMARKS
LK YELLOWSTONE   N/A      1  -3  83 CALM      30.30F
W YELLOWSTONE  NOT AVBL

$$
WYZ002>013-054>058-071-098>099-301000-
NORTHERN WYOMING

CITY           SKY/WX    TMP DP  RH WIND       PRES   REMARKS
JACKSON        FAIR      16  16 100 N6        30.30F WCI   7
CODY           FAIR      27  21  80 CALM      30.22F
GREYBULL       MOCLDY    23  22  96 CALM      30.25F FOG
WORLAND        FAIR      17  15  92 S3        30.25F
SHERIDAN       FAIR      22  17  81 SW5       30.22F WCI  16
BUFFALO        FAIR      35  15  44 N9        30.21S WCI  28
GILLETTE       FAIR      29  23  78 S10       30.20F WCI  20
HULETT           N/A    N/A N/A N/A MISG        N/A
NEWCASTLE      FAIR      32  19  59 E6        30.25F WCI  26

$$
WYZ014>020-022>026-101>103-301000-
CENTRAL WYOMING

CITY           SKY/WX    TMP DP  RH WIND       PRES   REMARKS
BIG PINEY      FAIR      19  15  84 CALM      30.28F
PINEDALE       FAIR      14  12  92 NW6       30.27F WCI   5
DUBOIS         FAIR      23   9  54 NW5       30.21F WCI  17
LANDER         FAIR      27  22  81 S3        30.22F
RIVERTON       FAIR      29  26  89 VRB5      30.24F WCI  24
CASPER         FAIR      30  25  81 W12       30.23F WCI  20
DOUGLAS        FAIR      25  22  88 CALM      30.24F

$$
WYZ021-027>030-104>119-301000-
SOUTHERN WYOMING

CITY           SKY/WX    TMP DP  RH WIND       PRES   REMARKS
EVANSTON       CLOUDY    30  27  88 N6        30.24F WCI  24
KEMMERER       CLOUDY    27  23  86 CALM      30.26S
FORT BRIDGER   CLOUDY    31  30  96 CALM      30.28F
ROCK SPRINGS   FAIR      29  26  89 S3        30.24F
DIXON          FAIR      30  27  86 CALM      30.29F
RAWLINS        FAIR      27  24  89 CALM      30.25F
SARATOGA       FAIR      28  25  86 CALM      30.26F
LARAMIE        FAIR      27  23  85 S9        30.24F WCI  18
CHEYENNE       FAIR      27  20  75 SW5       30.24F WCI  22
TORRINGTON     FAIR      27  18  69 E9        30.27F WCI  18
PINE BLUFFS    FAIR      32  25  74 S8        30.27F WCI  25

$$


USA.gov is the U.S. government's official web portal to all federal, state and local government web resources and services.